Location: Dugenta
(41.1333°N, 14.4500°E)
Time: 11:14:22
(UTC+00:00)

Cosmos 1633 Rocket - Pass Details

Date: 03 March 2021
Orbit: 606 x 624 km, 82.5° (Epoch: 20 April)

Event Time Altitude Azimuth Distance (km) Brightness Sun altitude
Rises 17:54:40 0° 200° (SSW) 2,886 6.7 -11.9°
Reaches altitude 10° 17:56:56 10° 206° (SSW) 1,987 6.0 -12.4°
Maximum altitude 18:01:12 49° 281° (W) 812 4.1 -13.2°
Drops below altitude 10° 18:05:31 10° 357° (N) 2,006 5.8 -14.0°
Sets 18:07:50 0° 3° (N) 2,917 6.5 -14.4°
